Weather in Constantine

Algeria     36°21′17″N   6°37′20″E
temp.,
°C
wind,
m/s
gust,
m/s
humid.,
%
clouds,
%
prec.,
mm/h
press.,
hPa
HPBL,
m
26 october, tue
tue2601:00+12nnw1194100 0.0 102110
04:00+12nw119542 0.0 102010
07:00+12nw1192100 0.0 102056
10:00+15ne1267100 0.0 1021854
13:00+18n225064 0.0 10191315
16:00+19n33415 0.0 10181673
19:00+15nne3477100 0.0 1020289
22:00+13nne2386100 0.0 1021102
27 october, wed
wed2701:00+12ne118898 0.0 102112
04:00+11nne1188100 0.0 102011
07:00+11ne118588 0.0 102112
10:00+15ene115874 0.0 1021588
13:00+18nne214464 0.0 10191236
16:00+18nnw2143100 0.0 10171601
19:00+15nne346279 0.0 1018222
22:00+13nne2379100 0.0 102092
28 october, thu
thu2801:00+12nne118713 0.0 101921
04:00+11ene118812 0.0 101811
07:00+11nw118817 0.0 101813
10:00+15ne216884 0.0 1019482
13:00+17nnw215548 0.4 10171029
16:00+18nnw225291 0.4 10161188
19:00+15nne236980 0.9 101794
22:00+14nne22757 0.1 1018222
29 october, fri
fri2901:00+12sse00845 0.1 101710
04:00+11ssw118662 0.0 101610
07:00+12sw227898 0.0 101711
10:00+17wnw225696 0.0 1017650
13:00+19nnw4544100 0.1 10161873
16:00+19nnw553840 0.0 10161984
19:00+15nne22595 0.0 101926
22:00+12nne11770 0.0 102010
30 october, sat
sat3001:00+11sse00820 0.0 102010
04:00+10s118113 0.0 102010
07:00+11sw227451 0.0 102110
10:00+16sw22465 0.0 1021489
13:00+19wnw22295 0.0 10201303
16:00+20n222524 0.0 10191395
19:00+17nne223633 0.0 102111
22:00+15e114685 0.0 102311